Weather Roundup
Issued by NWS

Home | Current Version | Previous Version | Graphics & Text | Print | Product List | Glossary Off
Versions: 1 2 3 4 5 6 7 8 9 10 11 12 13 14 15 16 17 18 19 20 21 22 23 24 25 26 27 28 29 30 31 32 33 34 35 36 37 38 39 40 41 42 43 44 45 46 47 48 49 50

000
NZUS93 KARX 231559
HRRWXR

CURRENT HOURLY OBSERVATIONS ACROSS
MUCH OF THE UPPER MISSISSIPPI VALLEY
NATIONAL WEATHER SERVICE LA CROSSE WI
1100 AM CDT TUE MAY 23 2017


...SOUTHEAST MINNESOTA...


CITY           SKY/WX    TMP DP  RH WIND       PRES   REMARKS
ROCHESTER      RAIN      51  49  92 N6        29.82R FOG
ROCHESTER/MAYO NOT AVBL
WINONA         CLOUDY    54  50  87 NE3       29.79S
AUSTIN         CLOUDY    52  46  82 NW6       29.80S
ALBERT LEA     LGT RAIN  54  48  82 CALM      29.82S
DODGE CENTER   CLOUDY    54  46  76 N9        29.81S
PRESTON        CLOUDY    49  47  92 NW7       29.80S
OWATONNA       LGT RAIN  52  46  82 N6        29.82S
FARIBAULT      LGT RAIN  52  48  87 NW3       29.83S
$$

...ELSEWHERE IN MINNESOTA...


CITY           SKY/WX    TMP DP  RH WIND       PRES   REMARKS
MINNEAPOLIS    CLOUDY    56  45  66 VRB6      29.83S
INTNL FALLS    CLOUDY    48  43  82 NE12      29.96R
DULUTH         CLOUDY    51  44  77 E10       29.88R
RED WING       LGT RAIN  54  45  71 E3        29.81S
REDWOOD FALLS  CLOUDY    51  44  77 N9        29.85F
MANKATO        LGT RAIN  51  46  83 NW7       29.83F
WORTHINGTON    LGT RAIN  49  46  90 NW12      29.87S
FAIRMONT       CLOUDY    50  44  80 N14       29.84F
$$

...SOUTHWEST WISCONSIN...


CITY           SKY/WX    TMP DP  RH WIND       PRES   REMARKS
LA CROSSE      CLOUDY    59  53  80 N7        29.76S
PRAIRIE DU CHI CLOUDY    58  51  79 SW6       29.76F
BOSCOBEL       CLOUDY    58  53  84 CALM      29.76F
LONE ROCK      CLOUDY    59  53  80 NW3       29.76F
PLATTEVILLE    CLOUDY    56  54  94 W5        29.77F
FORT MC COY    CLOUDY    54  50  89 N5        29.78R
CAMP DOUGLAS   CLOUDY    54  54 100 N6        29.77S
MAUSTON-NEW LI CLOUDY    54  51  89 N3        29.76S FOG
VIROQUA        PTSUNNY   55  51  85 MISG      29.76S
WIS DELLS      CLOUDY    57  52  81 SW8       29.76S
$$

...ELSEWHERE IN WISCONSIN...


CITY           SKY/WX    TMP DP  RH WIND       PRES   REMARKS
MILWAUKEE      CLOUDY    63  55  75 S13       29.78S
MADISON        CLOUDY    60  53  77 VRB3      29.76S
GREEN BAY      CLOUDY    55  50  83 NE17      29.80S
EAU CLAIRE     NOT AVBL
BLACK RVR FLS  CLOUDY    55  47  76 NE9       29.78S
MEDFORD        CLOUDY    47  46  93 NE8       29.81S
WAUSAU         CLOUDY    53  44  71 NE8       29.80S
WIS RAPIDS     CLOUDY    56  49  77 E7        29.79S
MARSHFIELD     CLOUDY    54  46  74 NE14      29.78S
RICE LAKE      CLOUDY    51  48  87 N7        29.85R
$$

...NORTHEAST IOWA...


CITY           SKY/WX    TMP DP  RH WIND       PRES   REMARKS
WATERLOO       CLOUDY    56  47  71 W9        29.79S
DUBUQUE        CLOUDY    57  51  80 W7        29.77F
DECORAH        CLOUDY    54  50  87 NW8       29.77S
MASON CITY     CLOUDY    51  45  79 NW12      29.83F
CHARLES CITY   CLOUDY    55  52  88 NW9       29.80F
OELWEIN        PTSUNNY   55  52  88 N9        29.79S
$$

...ELSEWHERE IN IOWA...


CITY           SKY/WX    TMP DP  RH WIND       PRES   REMARKS
DES MOINES     PTSUNNY   61  46  57 NW13      29.82F
IOWA CITY      CLOUDY    59  51  75 NW8       29.81S
FORT DODGE     CLOUDY    52  46  82 N5        29.84F
MARSHALLTOWN   CLOUDY    56  49  77 NW9       29.81S
CEDAR RAPIDS   CLOUDY    56  51  84 NW9       29.78F
$$

...NORTHERN ILLINOIS...


CITY           SKY/WX    TMP DP  RH WIND       PRES   REMARKS
CHICAGO-OHARE  CLOUDY    60  54  80 SW5       29.79F
CHICAGO-MIDWAY CLOUDY    60  54  80 SW7       29.80F
MOLINE         CLOUDY    61  53  75 W6        29.78S
ROCKFORD       CLOUDY    62  54  74 S15       29.79F
PEORIA         LGT RAIN  57  57 100 S6        29.80F
$$

NOTE: "FAIR" INDICATES FEW OR NO CLOUDS BELOW 12,000 FEET WITH NO
SIGNIFICANT WEATHER AND/OR OBSTRUCTIONS TO VISIBILITY. WIND
SPEEDS ARE IN MILES-PER-HOUR.




USA.gov is the U.S. government's official web portal to all federal, state and local government web resources and services.